Guymon, OK

3:53 PM CST on February 23, 2017 (GMT -0600)
Guymon Municipal

Weather History for KGUY - July, 2013

Change the Weather History Date:

Thursday, July 11, 2013

  Actual Average Record
Temperature  
Mean Temperature 82 °F 80 °F  
Max Temperature 94 °F 94 °F 110 °F (2016)
Min Temperature 70 °F 65 °F 51 °F (1999)
Degree Days  
Heating Degree Days 0 0  
Month to date heating degree days 0 0  
Since 1 June heating degree days 0 8  
Since 1 July heating degree days 0 0  
Cooling Degree Days 17 15  
Month to date cooling degree days 173 155  
Year to date cooling degree days 813 543  
Since 1 June cooling degree days 609 435  
Growing Degree Days 32 (Base 50)    
Moisture  
Dew Point 63 °F    
Average Humidity 59    
Maximum Humidity 84    
Minimum Humidity 33    
Precipitation  
Precipitation 0.08 in 0.10 in 0.42 in (2002)
Month to date precipitation 0.40 0.90  
Year to date precipitation 5.68 10.09  
Snow  
Snow 0.00 in - - ()
Month to date snowfall 0.0  
Since 1 June snowfall T  
Since 1 July snowfall 0.0  
Snow Depth 0.00 in    
Sea Level Pressure  
Sea Level Pressure 29.92 in    
Wind  
Wind Speed 10 mph (South)    
Max Wind Speed 20 mph    
Max Gust Speed 25 mph    
Visibility 10 miles    
Events Rain    
T = Trace of Precipitation, MM = Missing Value Source: NWS Daily Summary

Daily Weather History Graph

Daily Weather History Graph

Search for Another Location

Airport or City:

Trip Planner

Search our weather history database for the weather conditions in past years. The results will help you decide how hot, cold, wet, or windy it might be!

Date:

Astronomy

Jul. 11, 2013 Rise Set
Actual Time 6:36 AM CDT 9:06 PM CDT
Civil Twilight 6:06 AM CDT 9:36 PM CDT
Nautical Twilight 5:29 AM CDT 10:13 PM CDT
Astronomical Twilight 4:48 AM CDT 10:54 PM CDT
Moon 9:50 AM CDT (7/11) 10:55 PM CDT (7/11)
Length of Visible Light 15h 29m
Length of Day
14h 29m
Waxing Crescent, 11% of the Moon is Illuminated
Jul 11
Waxing Crescent
Jul 15
First Quarter
Jul 22
Full
Jul 29
Last Quarter
Aug 6
New

Hourly Weather History & Observations

Time (CDT) Temp. Heat Index Dew Point Humidity Pressure Visibility Wind Dir Wind Speed Gust Speed Precip Events Conditions
12:26 AM 71.6 °F - 66.2 °F 83% 30.18 in 10.0 mi NW 9.2 mph - 0.00 in Rain Light Rain
12:53 AM 70.0 °F - 66.0 °F 87% 30.03 in 10.0 mi WNW 16.1 mph 23.0 mph 0.02 in Rain Light Rain
1:53 AM 71.1 °F - 66.0 °F 84% 30.01 in 10.0 mi WSW 10.4 mph - 0.06 in Rain Light Rain
2:19 AM 71.6 °F - 62.6 °F 73% 30.13 in 10.0 mi South 15.0 mph - 0.01 in Rain Light Rain
2:53 AM 71.1 °F - 63.0 °F 75% 29.96 in 10.0 mi South 9.2 mph - 0.02 in   Clear
3:53 AM 73.9 °F - 60.1 °F 62% 29.91 in 10.0 mi SSE 9.2 mph - N/A   Clear
4:53 AM 71.1 °F - 61.0 °F 70% 29.89 in 10.0 mi West 4.6 mph - N/A   Clear
5:53 AM 71.1 °F - 63.0 °F 75% 29.89 in 10.0 mi NW 8.1 mph - N/A   Clear
6:53 AM 70.0 °F - 64.9 °F 84% 29.92 in 10.0 mi ESE 6.9 mph - N/A   Clear
7:53 AM 70.0 °F - 64.0 °F 81% 29.96 in 10.0 mi SSE 9.2 mph - N/A   Clear
8:53 AM 72.0 °F - 64.0 °F 76% 29.98 in 10.0 mi SSE 8.1 mph - N/A   Clear
9:53 AM 75.0 °F - 64.0 °F 69% 29.98 in 10.0 mi SSE 6.9 mph - N/A   Partly Cloudy
10:53 AM 78.1 °F - 64.9 °F 64% 29.97 in 10.0 mi South 6.9 mph - N/A   Clear
11:53 AM 82.9 °F 85.0 °F 66.0 °F 56% 29.96 in 10.0 mi South 8.1 mph - N/A   Partly Cloudy
12:53 PM 84.9 °F 85.9 °F 63.0 °F 48% 29.94 in 10.0 mi South 12.7 mph - N/A   Clear
1:53 PM 84.0 °F 84.4 °F 61.0 °F 46% 29.92 in 10.0 mi SSW 17.3 mph - N/A   Clear
2:53 PM 87.1 °F 88.9 °F 64.9 °F 48% 29.90 in 10.0 mi SSE 10.4 mph - 0.00 in   Scattered Clouds
3:53 PM 90.0 °F 91.3 °F 64.0 °F 42% 29.86 in 10.0 mi SE 11.5 mph - N/A   Clear
4:53 PM 91.0 °F 90.9 °F 61.0 °F 36% 29.84 in 10.0 mi South 10.4 mph 17.3 mph N/A   Clear
5:53 PM 93.0 °F 93.0 °F 61.0 °F 34% 29.81 in 10.0 mi SSE 10.4 mph - N/A   Clear
6:53 PM 91.9 °F 91.8 °F 61.0 °F 35% 29.80 in 10.0 mi SE 9.2 mph - N/A   Clear
7:50 PM 89.6 °F 89.5 °F 60.8 °F 38% 29.94 in 10.0 mi South 18.4 mph 24.2 mph N/A   Clear
7:53 PM 89.1 °F 88.8 °F 60.1 °F 38% 29.79 in 10.0 mi South 16.1 mph 24.2 mph N/A   Clear
8:53 PM 81.0 °F 82.2 °F 63.0 °F 54% 29.82 in 10.0 mi SE 12.7 mph 20.7 mph N/A   Clear
9:53 PM 78.1 °F - 63.0 °F 60% 29.83 in 10.0 mi SSE 12.7 mph - N/A   Clear
10:53 PM 77.0 °F - 62.1 °F 60% 29.84 in 10.0 mi South 10.4 mph - N/A   Clear
11:53 PM 75.9 °F - 62.1 °F 62% 29.84 in 10.0 mi South 9.2 mph - N/A   Clear